Temperature
24 20 20 21 21 22 22 22 22 22 23 22 21 20 20 20 19 19 18 18 18 18 18 18 18 18 18 18 18 17 17 17 17 17 17 16 16 16 16 16 15 15 15 15
20 20 22 23 23 23 23 22 22 22 23 22 21 20 20 19 19 19 19 18 18 18 18 18 18 18 17 17 17 17 17 16 16 16 16 16 16 15 15 15 15 15 15 15
21 22 24 24 24 24 23 22 22 22 22 22 21 20 19 19 19 19 19 18 18 18 18 17 17 17 17 17 17 16 16 16 16 16 15 15 15 15 15 15 15 14 14 14
22 23 25 24 24 24 22 23 23 23 21 19 20 18 18 18 18 18 18 18 18 18 18 17 17 17 16 16 16 16 16 16 15 15 15 15 15 15 14 14 14 14 14 13
22 24 24 24 24 24 24 24 23 22 20 19 19 18 18 18 18 18 17 17 17 17 17 17 17 16 16 16 16 16 15 15 15 15 15 14 14 14 14 14 13 13 13 13
23 24 24 25 25 25 24 22 21 19 18 18 19 19 18 17 18 18 17 17 17 17 17 16 16 16 16 16 15 15 15 15 15 14 14 14 14 14 13 13 13 13 13 13
22 23 24 25 24 23 22 19 18 18 17 18 19 18 17 18 18 18 17 17 17 17 16 16 16 15 15 15 15 15 15 15 14 14 14 13 13 13 13 13 13 12 12 12
21 21 23 24 24 23 22 20 18 18 17 17 18 18 17 18 18 18 18 17 17 16 16 16 15 15 15 15 15 14 14 14 14 13 13 13 13 13 12 12 12 12 12 12
21 21 23 24 24 23 22 20 19 17 17 17 17 17 18 17 17 17 17 16 16 16 16 15 15 15 15 15 14 14 14 13 13 13 13 13 12 12 12 12 11 11 11 11
21 21 22 23 23 23 22 20 17 17 17 17 18 17 17 17 16 16 15 15 16 16 15 15 15 14 14 14 14 14 13 13 13 13 12 12 12 12 11 11 11 11 11 11
21 20 20 21 22 21 21 20 18 16 16 17 17 17 18 17 16 16 15 16 15 15 15 15 14 14 14 14 13 13 13 13 12 12 12 12 11 11 11 11 11 11 11 11
19 17 18 19 21 22 21 20 18 17 17 16 16 16 18 16 16 16 15 15 15 15 15 14 14 14 13 13 13 13 12 12 12 12 11 11 11 11 11 11 11 11 11 10
19 17 17 18 18 20 20 20 19 17 16 16 16 16 17 16 16 16 15 15 15 15 14 14 13 13 13 13 13 12 12 12 12 11 11 11 11 11 11 10 10 10 10 10
19 16 17 17 18 18 19 20 20 18 16 16 17 17 16 16 15 15 15 15 15 14 14 14 13 13 13 12 12 12 12 12 11 11 11 11 11 10 10 10 10 10 10 10
17 17 18 18 19 20 20 20 20 19 18 17 17 17 16 15 15 15 15 15 14 14 14 13 13 13 13 12 12 12 12 11 11 11 11 11 11 10 10 10 10 10 10 10
16 17 17 18 19 19 20 20 20 20 19 18 18 17 16 16 16 15 15 14 14 14 13 13 13 13 12 12 12 12 11 11 11 11 11 10 10 10 10 10 10 10 10 10
15 16 16 16 18 18 18 19 20 19 19 18 17 16 15 15 15 15 15 14 14 14 14 13 13 13 12 12 12 12 11 11 11 11 10 10 10 10 10 10 10 10 10 9
15 15 14 15 16 17 17 19 20 19 18 18 17 16 16 15 16 16 15 15 14 14 13 13 13 13 12 12 12 11 11 11 11 11 10 10 10 10 10 10 10 10 9 9
15 15 15 14 15 16 18 19 19 18 17 17 16 16 16 15 15 14 15 15 15 14 14 13 13 12 12 12 11 11 11 11 11 10 10 10 10 10 10 10 10 10 10 10
16 14 15 15 16 16 17 19 20 18 16 17 16 15 15 15 13 13 15 15 14 14 13 13 12 12 12 12 11 11 11 11 10 10 10 10 10 10 10 10 10 10 10 9
15 15 15 15 15 16 18 19 19 17 16 16 17 16 15 14 14 15 14 14 14 13 13 13 12 12 12 11 11 11 11 10 10 10 10 10 10 10 10 10 10 9 9 9
15 14 14 14 15 16 17 18 17 16 17 17 17 16 16 15 15 14 14 14 13 13 12 12 12 12 11 11 11 11 11 10 10 10 10 10 10 10 10 10 10 10 9 10
14 14 13 14 14 16 17 18 18 18 17 17 17 16 16 15 14 14 13 13 13 12 12 12 12 11 11 11 11 11 11 10 10 10 10 10 10 10 10 10 10 10 10 10
14 14 13 13 14 15 17 17 17 17 17 17 17 16 16 15 14 14 13 13 13 12 12 12 11 11 11 11 11 11 10 10 10 10 10 10 10 10 10 10 10 10 10 10
14 14 13 13 14 15 16 17 17 16 16 16 16 16 16 15 14 14 13 13 12 12 12 12 11 11 11 11 11 10 10 10 10 10 10 10 10 10 10 10 10 10 10 10
13 13 13 13 14 14 15 16 16 16 16 16 16 15 15 15 14 13 13 13 12 12 12 12 11 11 11 11 11 10 10 10 10 10 10 10 10 10 10 10 10 10 10 10
Wind_Speed
3 3 4 8 8 8 6 4 5 6 4 3 4 5 5 6 8 9 8 7 7 6 5 5 5 5 6 5 5 4 4 3 3 2 2 2 1 1 1 1 3 3 3 3
5 6 12 9 6 4 4 3 4 5 2 2 3 3 3 5 7 9 10 9 8 7 6 6 5 4 4 4 4 4 3 2 3 2 2 2 2 1 1 1 2 3 2 2
7 9 8 5 5 3 2 2 3 2 3 3 3 3 1 1 1 4 7 8 8 10 10 8 6 4 3 4 4 4 3 2 1 2 2 2 2 2 1 1 1 1 2 2
6 6 3 3 4 1 3 5 2 0 2 2 1 1 4 3 2 4 6 6 8 8 9 8 8 6 5 4 4 4 3 3 2 2 3 3 2 1 1 1 0 1 2 2
5 4 3 4 4 2 5 3 1 1 1 1 3 2 4 2 3 5 6 7 7 8 10 9 7 6 5 4 4 3 3 2 2 3 4 4 3 1 1 1 1 1 1 1
6 5 3 4 3 2 1 4 6 5 4 2 4 2 4 4 6 5 5 7 7 8 8 7 6 6 5 4 4 4 4 3 2 3 3 3 3 2 2 1 1 0 0 1
6 6 4 1 3 5 4 5 4 5 4 4 4 1 5 5 3 5 7 7 7 8 8 7 6 6 5 5 4 4 4 3 2 3 3 3 2 2 2 1 1 1 0 0
3 6 5 2 2 3 1 6 6 4 4 5 3 2 4 2 1 3 4 6 7 7 7 7 7 6 6 5 4 3 4 3 2 3 2 2 2 1 1 1 1 1 1 2
1 5 6 4 1 3 1 1 7 6 1 1 3 3 4 1 1 3 5 5 7 7 7 6 6 5 5 5 4 4 4 3 2 2 2 2 2 1 1 0 0 1 1 1
2 3 6 5 4 4 3 4 5 4 2 3 4 4 4 5 5 3 4 6 6 7 7 6 5 5 5 5 4 4 4 3 2 2 2 1 1 1 1 1 0 1 1 1
2 1 5 5 2 3 3 2 3 3 4 4 4 6 5 8 7 7 6 6 7 7 8 7 6 4 4 4 3 3 3 2 2 2 2 1 1 1 1 0 1 1 1 1
2 3 2 6 6 3 2 2 4 3 3 4 3 7 4 5 6 8 7 5 6 6 6 7 6 5 4 4 3 3 3 2 2 2 2 1 0 0 0 1 1 1 1 1
3 4 3 8 8 6 3 2 1 4 3 3 3 6 1 3 5 6 7 6 5 6 6 6 5 5 4 4 3 3 2 3 2 3 3 1 0 0 1 1 2 1 1 1
3 3 4 5 7 5 6 7 5 1 2 4 6 6 3 4 6 6 6 6 5 7 7 6 5 4 3 3 3 2 2 3 3 3 3 2 1 1 1 1 1 1 1 1
4 1 4 6 7 7 8 9 7 4 5 6 6 7 8 9 9 9 8 7 7 6 7 7 6 5 4 3 3 2 2 2 3 3 2 2 2 1 1 1 1 1 1 1
2 1 3 5 6 8 9 9 6 5 3 4 3 4 4 6 6 7 7 8 8 7 7 7 6 6 5 4 4 3 2 2 3 3 2 1 1 0 0 1 1 1 1 1
2 2 1 5 7 6 6 6 4 2 2 5 6 6 6 6 7 9 9 9 8 7 7 8 7 6 5 5 5 4 3 2 2 2 2 1 1 1 0 0 1 1 1 1
5 3 2 2 3 4 7 4 1 1 2 2 3 5 9 8 6 6 7 9 8 7 7 7 7 5 4 4 4 4 3 2 2 2 1 1 1 1 1 0 0 1 1 1
6 5 2 2 2 6 7 5 1 1 3 1 4 5 6 7 5 1 4 7 7 7 7 6 6 5 5 5 4 4 3 2 2 2 2 2 2 2 1 0 1 1 1 1
2 4 3 3 3 5 7 6 2 3 2 2 3 6 7 7 4 4 4 7 7 6 6 6 6 4 4 4 4 5 3 2 2 3 2 1 1 1 1 1 1 1 1 2
3 2 2 4 4 6 6 3 2 1 6 3 3 6 7 5 5 5 7 7 8 7 7 7 6 5 4 4 5 5 3 2 3 3 2 1 1 1 2 1 1 1 1 2
2 2 3 2 3 7 4 1 2 5 2 3 4 6 7 6 7 7 8 8 9 7 6 7 6 4 3 4 5 4 3 3 3 2 1 1 1 1 1 1 1 1 1 1
3 4 3 4 6 7 4 3 3 4 4 2 3 6 9 9 8 8 7 8 7 7 6 5 6 5 3 3 5 5 3 3 3 2 1 1 2 2 1 1 2 2 1 1
4 1 1 3 6 5 4 2 1 1 2 3 6 8 9 9 9 8 7 7 7 6 5 5 6 5 3 3 3 4 4 4 4 2 2 2 2 2 2 2 2 2 2 2
6 3 3 6 6 3 3 2 1 1 3 6 6 6 9 10 9 8 7 7 7 6 5 5 6 5 4 3 3 3 4 4 3 2 2 2 2 2 2 2 3 3 4 4
7 6 6 8 7 5 7 5 1 2 3 5 6 5 6 9 10 8 7 6 6 6 5 5 5 5 4 4 3 3 4 4 4 2 2 1 1 2 2 2 4 5 5 7
Wind_Direction
319 46 268 249 223 212 231 264 279 275 265 129 142 156 171 161 161 166 171 174 170 163 151 136 137 137 132 130 118 118 126 140 137 139 140 144 166 147 120 129 132 122 110 110
5 284 254 255 260 248 254 266 283 301 316 114 126 135 161 162 179 174 173 180 171 148 136 142 136 133 136 139 133 128 135 149 156 166 172 170 154 143 141 104 82 92 93 109
218 249 262 255 271 288 298 244 261 268 350 43 79 18 32 229 148 171 180 175 166 164 158 155 148 143 148 145 140 141 148 152 145 149 125 99 73 56 58 66 50 33 75 84
249 260 288 303 284 253 280 268 264 243 67 295 100 253 279 216 197 192 187 172 173 164 155 157 155 155 160 158 147 150 152 143 131 121 125 133 132 157 196 178 133 20 57 84
283 291 301 291 260 236 236 258 342 8 93 12 2 127 272 202 223 227 203 188 180 163 157 160 159 157 151 148 141 141 128 115 110 117 131 126 123 141 127 103 85 43 21 50
271 270 232 235 263 245 239 33 22 34 58 353 278 197 274 239 219 207 197 193 179 160 154 153 151 143 140 137 130 126 118 103 101 111 118 127 131 126 117 107 121 81 28 26
320 316 308 308 335 342 55 73 20 360 5 263 279 171 247 261 232 189 183 182 173 156 150 148 144 145 142 139 141 131 124 112 98 98 98 107 124 132 140 155 175 176 161 263
334 307 300 306 223 231 240 137 157 202 235 273 319 235 254 266 77 123 147 159 153 148 150 153 150 147 140 132 125 132 127 117 107 106 105 98 98 102 119 180 178 180 196 217
235 283 301 301 301 140 154 185 173 152 209 274 274 265 290 325 67 116 121 128 148 156 152 150 149 147 140 133 132 130 125 120 113 116 116 82 74 74 57 19 139 183 204 202
153 279 302 321 7 12 147 159 86 103 174 270 275 250 233 229 221 197 154 153 160 162 156 154 153 151 146 144 143 131 135 147 136 114 125 117 72 31 355 18 293 236 240 206
89 153 311 351 349 298 354 22 102 131 166 178 249 264 228 204 202 190 188 171 160 159 162 160 158 149 135 132 142 145 145 135 134 139 132 106 68 33 21 334 268 248 248 226
46 108 293 286 278 242 199 205 151 166 239 192 205 262 276 187 178 165 162 156 151 155 160 160 155 144 139 150 163 170 167 158 157 156 147 132 107 105 296 294 290 279 296 292
46 85 5 338 341 350 351 297 241 155 143 184 203 258 295 119 132 145 145 142 141 143 146 145 145 152 163 174 176 181 172 169 163 143 136 128 115 260 278 291 295 291 316 331
64 101 174 227 254 276 297 301 296 150 172 229 225 227 230 173 159 160 151 149 147 149 152 155 159 165 166 160 157 161 173 171 157 139 139 155 215 232 250 274 289 304 307 292
62 211 247 259 277 287 293 293 286 267 216 211 231 217 218 195 179 170 165 159 151 156 159 163 169 170 163 153 156 152 157 160 156 148 154 193 228 240 271 321 308 312 313 266
44 230 302 306 295 300 302 294 283 274 238 201 204 251 209 162 150 153 164 164 162 166 165 163 164 168 168 166 166 157 152 154 143 142 166 198 211 224 322 289 295 334 340 335
223 174 320 280 292 324 299 271 255 272 233 192 214 220 167 153 165 171 176 170 168 167 166 164 169 175 173 173 167 167 172 165 154 161 167 186 162 160 224 218 28 359 336 1
188 186 185 259 337 265 253 265 206 177 253 172 158 174 170 171 172 173 168 165 167 164 161 164 165 168 172 170 159 157 149 154 158 156 163 175 168 170 179 112 9 301 297 309
179 168 178 184 239 273 280 286 241 198 272 188 131 148 153 134 100 76 173 158 163 163 159 162 166 165 164 165 164 146 140 149 147 158 176 178 158 155 156 240 278 278 289 304
68 118 159 191 209 248 256 279 264 94 285 290 138 150 150 130 149 222 176 136 131 135 140 146 145 138 154 170 152 139 150 156 189 190 185 178 165 165 194 239 266 285 287 285
348 342 215 222 229 257 263 278 41 144 249 243 166 162 158 169 190 169 141 127 129 132 133 137 134 139 162 160 142 144 156 190 206 191 175 193 220 216 216 239 263 281 299 318
242 233 231 198 225 249 298 37 176 223 219 161 148 151 145 135 125 125 130 130 129 131 136 141 140 145 153 148 143 154 186 201 179 157 158 215 253 252 213 235 293 306 308 318
228 204 214 213 233 265 281 235 227 169 149 153 139 143 137 136 142 131 135 142 143 146 149 147 147 147 157 161 155 164 195 180 154 144 182 252 274 284 260 232 257 288 296 292
285 287 253 282 276 290 301 349 17 78 133 152 143 139 141 143 148 142 144 151 153 154 153 144 141 150 166 177 170 180 185 166 155 174 226 254 268 286 294 283 248 237 254 265
265 292 278 272 269 303 296 268 260 27 102 113 122 134 147 144 149 150 153 159 163 160 155 149 154 163 176 174 172 182 175 161 161 188 233 257 252 259 285 289 265 244 245 239
244 228 228 249 243 236 256 255 199 145 149 144 136 129 145 150 153 151 157 164 164 160 155 154 161 170 180 174 179 192 181 166 166 196 246 256 258 272 274 284 307 300 271 270
Height
1504 1509 1513 1508 1505 1507 1508 1510 1512 1505 1497 1500 1506 1508 1507 1508 1509 1509 1510 1513 1515 1516 1518 1519 1520 1521 1521 1522 1523 1524 1525 1526 1526 1526 1526 1527 1527 1527 1527 1527 1527 1526 1526 1525
1510 1512 1502 1498 1499 1501 1504 1509 1509 1504 1496 1500 1506 1508 1508 1508 1508 1508 1510 1512 1514 1515 1516 1518 1518 1519 1519 1520 1520 1522 1523 1523 1524 1524 1524 1524 1524 1524 1525 1525 1525 1524 1524 1523
1512 1504 1495 1496 1499 1501 1503 1506 1506 1506 1501 1501 1505 1513 1512 1509 1509 1509 1510 1511 1512 1512 1513 1515 1517 1518 1518 1519 1519 1520 1521 1522 1522 1522 1522 1522 1522 1522 1523 1523 1522 1522 1521 1520
1504 1496 1494 1496 1498 1499 1507 1497 1496 1499 1509 1517 1512 1529 1517 1511 1510 1509 1509 1510 1510 1511 1512 1514 1515 1517 1517 1518 1519 1520 1520 1521 1521 1521 1521 1520 1520 1520 1520 1521 1520 1519 1519 1518
1502 1495 1495 1498 1495 1494 1497 1492 1495 1499 1508 1517 1516 1525 1522 1512 1512 1510 1508 1508 1508 1509 1511 1513 1514 1515 1516 1517 1517 1519 1519 1520 1520 1520 1519 1519 1519 1519 1519 1518 1518 1517 1517 1516
1496 1491 1491 1491 1488 1488 1490 1495 1501 1508 1517 1529 1521 1524 1525 1515 1509 1506 1506 1506 1507 1509 1510 1512 1513 1514 1515 1516 1517 1518 1518 1518 1518 1518 1518 1518 1517 1517 1517 1516 1516 1515 1515 1514
1501 1494 1489 1487 1491 1490 1494 1511 1530 1533 1539 1535 1518 1521 1521 1507 1503 1502 1503 1504 1506 1508 1509 1511 1513 1513 1514 1515 1516 1516 1516 1516 1517 1517 1516 1516 1516 1516 1515 1515 1514 1513 1513 1512
1513 1511 1494 1488 1491 1495 1496 1508 1530 1541 1542 1534 1521 1523 1515 1504 1502 1501 1502 1502 1504 1505 1507 1510 1511 1512 1512 1513 1514 1515 1515 1515 1515 1515 1515 1515 1515 1514 1514 1514 1513 1512 1511 1511
1512 1510 1491 1487 1486 1489 1498 1505 1507 1523 1528 1534 1529 1519 1509 1503 1503 1501 1501 1501 1502 1504 1506 1508 1510 1511 1512 1512 1513 1513 1514 1514 1514 1514 1514 1514 1514 1514 1513 1512 1512 1511 1511 1510
1502 1508 1496 1489 1487 1488 1492 1498 1512 1523 1533 1538 1528 1522 1518 1507 1505 1502 1501 1501 1501 1503 1505 1507 1509 1510 1511 1512 1512 1512 1513 1513 1513 1513 1514 1514 1513 1513 1512 1511 1511 1510 1509 1509
1499 1509 1504 1497 1497 1498 1497 1500 1508 1520 1524 1533 1536 1526 1500 1500 1499 1500 1500 1499 1500 1502 1504 1506 1508 1510 1511 1512 1512 1512 1512 1512 1512 1512 1513 1513 1512 1512 1511 1510 1509 1509 1508 1507
1500 1510 1514 1504 1493 1489 1492 1497 1506 1520 1522 1522 1528 1522 1494 1494 1494 1496 1498 1499 1501 1502 1504 1506 1508 1509 1510 1511 1512 1512 1512 1512 1512 1512 1512 1512 1512 1511 1510 1510 1509 1508 1507 1506
1501 1512 1522 1517 1509 1497 1496 1494 1497 1506 1515 1521 1525 1517 1495 1494 1495 1497 1498 1500 1501 1502 1504 1506 1507 1509 1510 1511 1511 1511 1511 1511 1511 1511 1511 1511 1511 1510 1510 1509 1508 1507 1506 1505
1500 1511 1519 1523 1516 1505 1501 1496 1494 1501 1514 1515 1510 1505 1498 1496 1497 1498 1499 1499 1500 1502 1503 1505 1507 1508 1509 1510 1510 1510 1510 1510 1511 1511 1510 1510 1510 1509 1509 1508 1507 1506 1505 1504
1502 1511 1508 1505 1500 1497 1497 1494 1491 1494 1497 1504 1500 1498 1494 1493 1494 1496 1497 1499 1500 1501 1502 1504 1505 1507 1508 1509 1509 1509 1509 1509 1510 1510 1510 1509 1509 1509 1508 1507 1506 1505 1504 1503
1504 1509 1507 1505 1498 1496 1495 1490 1488 1488 1488 1492 1493 1494 1489 1490 1492 1494 1496 1497 1498 1500 1501 1502 1504 1505 1506 1507 1508 1509 1509 1509 1509 1509 1509 1508 1508 1508 1507 1506 1505 1504 1503 1502
1506 1509 1513 1514 1502 1499 1503 1490 1487 1486 1484 1487 1492 1491 1488 1490 1491 1492 1494 1495 1496 1497 1500 1500 1502 1504 1505 1506 1507 1508 1508 1508 1508 1508 1508 1508 1507 1507 1506 1505 1504 1503 1502 1501
1502 1507 1514 1514 1510 1514 1499 1482 1481 1483 1483 1482 1483 1484 1485 1487 1489 1490 1492 1494 1495 1496 1498 1500 1501 1503 1504 1506 1507 1507 1507 1507 1508 1507 1507 1507 1507 1506 1505 1504 1503 1503 1502 1501
1493 1502 1511 1516 1514 1506 1492 1483 1482 1485 1486 1483 1483 1484 1485 1487 1490 1492 1492 1492 1493 1495 1497 1499 1501 1502 1503 1504 1506 1506 1506 1507 1507 1507 1507 1507 1506 1506 1505 1504 1503 1502 1501 1500
1492 1497 1507 1510 1512 1510 1494 1481 1477 1481 1489 1482 1482 1483 1485 1487 1493 1493 1491 1491 1493 1495 1497 1498 1500 1501 1502 1504 1505 1505 1505 1506 1506 1506 1506 1506 1506 1505 1504 1503 1503 1502 1501 1500
1502 1503 1506 1507 1508 1499 1484 1479 1478 1492 1491 1482 1481 1482 1483 1485 1488 1489 1490 1491 1492 1495 1497 1498 1499 1500 1501 1503 1504 1504 1505 1505 1506 1506 1506 1506 1505 1504 1504 1503 1502 1501 1500 1499
1503 1505 1504 1504 1507 1500 1480 1479 1483 1484 1479 1479 1480 1481 1483 1484 1486 1489 1490 1491 1493 1495 1497 1498 1499 1500 1501 1502 1503 1504 1504 1505 1505 1506 1505 1505 1505 1504 1504 1503 1502 1501 1500 1499
1498 1498 1499 1498 1496 1484 1479 1478 1478 1478 1479 1479 1480 1481 1482 1485 1487 1488 1491 1492 1493 1495 1497 1498 1499 1500 1502 1502 1503 1503 1504 1504 1505 1505 1505 1505 1504 1504 1503 1502 1502 1501 1500 1498
1494 1491 1493 1492 1486 1482 1480 1478 1478 1478 1478 1478 1479 1481 1482 1484 1486 1488 1491 1493 1494 1495 1497 1498 1499 1500 1501 1502 1503 1503 1504 1504 1504 1505 1505 1504 1504 1503 1503 1502 1501 1500 1499 1497
1494 1492 1492 1490 1484 1481 1478 1478 1478 1478 1478 1478 1479 1481 1482 1484 1486 1488 1491 1493 1494 1495 1497 1498 1499 1500 1501 1502 1503 1503 1504 1504 1504 1504 1504 1504 1503 1503 1502 1501 1500 1499 1498 1497
1487 1488 1489 1486 1480 1480 1478 1476 1477 1478 1478 1478 1479 1481 1483 1484 1486 1488 1490 1492 1494 1495 1496 1498 1499 1500 1501 1502 1502 1503 1503 1504 1504 1504 1504 1503 1503 1502 1502 1501 1499 1499 1497 1496